Theta_e
329 330 328 327 322 320 323 325 323 325 324 325 326 325 325 330 330 327 330 329 332 329 335 335 331 327 324 319 311 312 314 318 323 331 327 319 315 313 313 313 314 316 314 314 318 316 315 318 323
329 330 328 327 320 324 323 324 326 325 325 330 329 330 330 332 331 329 330 330 331 328 331 332 328 324 323 320 312 311 312 315 316 330 329 323 318 313 312 312 313 314 313 313 315 313 314 316 319
329 331 327 320 318 323 326 325 324 326 327 327 328 331 332 332 330 328 329 331 330 328 330 332 329 325 323 319 313 311 312 315 318 331 330 327 319 313 312 312 313 313 313 313 314 314 314 313 312
328 331 327 320 325 324 324 324 325 326 328 328 328 330 331 332 329 327 329 332 330 327 328 330 330 326 324 320 314 311 312 313 315 325 331 328 318 314 312 312 312 313 313 313 314 314 314 314 313
328 330 325 324 324 325 323 325 325 325 326 327 327 330 329 331 332 329 328 331 332 326 327 329 331 328 325 319 314 311 311 313 313 317 328 328 327 320 316 313 312 312 312 313 313 314 314 315 314
327 328 329 330 328 324 324 325 325 325 326 326 329 329 328 330 330 331 330 329 330 326 325 328 331 329 326 321 314 311 311 312 313 313 318 322 324 326 323 317 312 312 312 313 313 314 314 314 314
328 324 330 330 331 324 323 325 324 325 325 327 329 329 328 326 325 328 329 330 330 329 323 327 331 330 327 323 317 313 311 312 312 312 313 314 316 325 324 318 314 312 312 312 313 313 314 314 313
329 324 329 327 329 330 322 323 324 325 327 328 328 328 327 323 325 330 330 329 329 328 325 326 329 330 328 323 320 315 313 312 312 313 312 312 313 317 322 319 314 312 312 312 312 313 313 314 315
329 325 326 328 328 328 323 322 323 325 327 328 328 329 330 324 325 330 331 332 331 327 324 326 328 330 329 326 322 318 315 313 315 314 313 312 313 314 316 316 315 313 313 312 312 313 313 313 314
325 322 324 324 325 326 323 321 323 322 324 327 329 329 330 325 325 327 327 326 328 326 322 321 322 326 328 328 325 321 318 317 317 317 314 313 313 313 314 314 313 313 313 313 313 313 313 313 313
325 321 322 325 325 325 326 324 326 322 322 322 325 327 329 327 326 326 326 325 321 321 322 319 319 321 325 326 325 323 321 319 318 318 318 315 313 313 313 315 314 314 313 313 313 313 313 313 313
325 325 324 322 323 323 324 326 326 325 326 326 327 328 329 329 327 326 325 324 323 322 321 319 317 317 319 324 325 324 323 320 319 318 318 317 315 313 313 313 313 313 312 313 313 313 313 313 313
321 321 322 322 322 322 322 325 324 326 327 327 327 327 328 328 328 327 326 325 325 324 324 322 319 316 316 318 320 321 320 322 320 320 320 318 316 314 313 313 313 313 313 313 313 313 314 314 313
320 320 322 323 322 322 322 322 324 323 323 326 326 326 325 326 327 327 327 327 327 327 326 325 324 322 318 316 316 318 318 318 319 318 318 319 317 316 314 314 315 316 314 314 313 313 314 314 314
322 321 320 321 322 322 322 320 321 321 322 322 322 321 320 320 322 325 325 327 327 327 327 327 326 327 325 323 321 318 318 319 319 318 316 317 317 317 317 314 314 316 317 316 316 314 314 314 314
321 319 321 319 320 322 321 319 317 319 320 320 319 318 318 319 319 319 319 322 323 325 327 327 327 327 327 328 327 325 322 320 319 318 318 318 317 317 317 315 313 314 317 320 317 315 313 313 314
319 320 320 320 319 318 319 320 318 319 318 319 319 321 321 321 321 321 322 321 320 321 322 325 326 327 327 327 328 329 328 326 324 322 320 319 318 317 317 317 315 314 316 317 319 317 314 314 313
319 320 318 320 317 317 317 316 315 319 318 319 319 320 320 321 320 321 322 322 323 322 322 323 324 325 326 327 329 329 329 328 328 326 324 322 321 321 319 319 318 316 316 316 317 317 316 316 315
316 319 319 318 316 317 316 315 314 316 316 317 318 320 321 322 321 320 320 322 321 322 323 324 325 325 325 325 327 329 328 328 328 328 328 326 324 322 320 320 321 319 318 316 316 316 316 317 317
318 319 318 317 316 315 314 314 312 313 314 316 317 318 320 320 320 319 319 318 319 319 320 321 322 323 324 324 325 326 326 327 327 328 328 328 328 326 324 322 321 320 320 319 318 318 317 315 316
318 319 317 318 316 314 312 313 311 311 312 315 316 317 316 317 317 317 316 316 316 317 318 319 321 322 323 323 324 326 327 327 327 327 326 325 327 328 327 326 324 322 322 321 320 319 318 316 316
318 316 317 318 317 317 312 314 311 312 311 310 314 314 314 315 314 314 314 315 316 317 317 316 320 320 320 322 323 324 325 325 323 324 324 325 325 326 327 327 327 326 324 324 322 321 320 319 318
316 315 316 316 316 314 314 313 310 309 310 309 311 313 313 316 317 317 315 316 316 317 317 318 318 319 319 319 320 320 322 324 324 326 326 325 325 325 326 326 327 327 326 326 325 324 323 322 320
316 316 316 316 315 315 312 312 311 309 309 308 309 311 313 318 317 317 316 316 315 315 315 317 319 321 321 321 320 320 321 322 325 325 326 326 326 326 325 325 326 326 327 327 326 326 325 324 323
316 315 310 312 318 314 310 312 312 309 308 308 309 313 314 315 314 314 314 314 314 315 315 315 315 315 314 314 316 319 321 322 323 323 324 325 326 326 326 326 326 327 327 326 326 326 326 326 325
315 316 310 311 313 312 310 313 312 310 311 312 312 312 313 313 313 314 315 315 314 314 314 314 315 315 315 315 315 315 313 313 316 322 324 325 325 325 325 326 326 326 327 328 328 327 327 326 325
313 316 310 311 305 308 310 309 309 309 310 310 311 314 314 312 313 314 315 315 315 314 314 313 313 313 313 313 313 314 315 313 310 312 317 319 321 323 324 325 326 327 328 328 328 328 327 326 326
312 311 315 313 313 312 310 311 312 310 310 310 310 314 310 311 314 315 315 314 313 313 313 312 311 311 311 312 312 312 313 314 314 313 312 310 309 313 318 322 324 326 327 327 328 327 327 327 326
315 315 314 312 308 310 308 308 305 309 308 307 307 311 312 313 314 314 314 313 313 313 312 312 311 310 310 310 311 311 311 312 312 313 314 314 313 311 308 311 323 325 324 325 327 326 327 327 327
311 314 314 315 312 310 310 310 307 307 309 308 307 309 311 314 314 314 313 313 312 312 312 311 310 309 310 310 310 310 310 310 311 312 313 313 313 311 308 307 311 321 321 322 325 327 326 326 327
Wind_Speed
24 18 9 2 4 5 1 1 1 1 2 2 3 6 7 5 3 3 14 15 17 19 19 15 11 8 8 7 6 9 15 15 15 13 7 9 10 10 11 12 13 14 15 15 15 14 13 14 13
24 16 4 3 5 3 3 1 4 2 5 12 8 6 5 2 4 6 20 14 12 18 18 16 11 9 8 8 7 7 11 15 13 13 7 8 9 10 11 13 13 13 13 13 13 13 12 12 13
20 12 4 4 4 4 4 3 5 5 5 3 3 5 2 2 3 13 13 15 15 18 17 16 12 10 9 8 7 8 11 13 13 15 10 7 8 10 11 12 13 13 13 12 12 11 11 10 10
17 5 4 5 3 1 5 6 5 6 5 4 8 4 2 2 5 12 11 14 16 17 16 15 13 11 10 9 8 8 8 10 12 15 14 9 8 10 10 11 12 12 12 11 11 10 10 8 9
12 5 4 4 2 2 1 8 12 4 5 6 6 3 2 5 5 8 12 16 14 17 18 16 14 13 11 10 9 9 9 9 10 12 14 13 9 10 9 10 10 11 12 11 11 10 8 7 6
7 4 4 1 1 2 1 9 5 5 7 7 5 7 4 7 7 9 12 14 13 15 18 18 16 14 11 11 10 9 10 11 11 11 13 12 13 11 10 8 9 10 11 11 11 10 8 6 4
4 3 1 2 2 1 4 7 6 6 6 3 10 4 3 8 8 9 12 12 12 13 19 19 17 15 13 12 11 10 10 12 11 10 11 11 12 13 11 9 10 10 11 11 11 10 8 7 4
2 4 2 2 2 2 1 2 5 6 4 8 4 4 3 11 10 12 14 13 12 13 16 18 18 17 16 14 14 13 12 12 11 11 11 11 12 13 13 12 13 13 12 12 11 10 10 8 7
3 3 3 3 2 4 2 2 2 3 7 5 6 4 2 12 14 17 18 19 17 17 18 17 19 19 18 17 16 16 15 13 13 13 12 12 13 14 14 13 11 14 14 13 12 12 11 11 10
4 4 8 4 4 1 2 1 3 3 4 2 4 4 7 14 16 18 20 21 22 22 20 20 19 21 21 21 20 19 18 17 16 15 14 13 14 15 16 16 14 14 16 16 15 13 13 14 13
5 5 4 4 1 2 2 2 1 5 3 6 7 9 10 13 16 18 19 19 17 18 19 20 20 21 24 24 22 22 22 20 19 18 17 15 15 17 18 19 18 18 16 17 18 17 16 15 15
3 7 4 4 2 2 3 3 3 6 3 4 3 5 9 12 15 17 19 18 18 19 18 19 21 22 24 25 25 24 25 24 23 22 21 20 19 19 21 21 21 20 18 17 18 19 18 18 17
3 4 7 6 6 6 5 9 7 10 12 7 5 5 10 11 12 14 16 18 19 21 20 21 20 23 24 26 26 26 26 27 25 25 24 23 22 22 21 23 23 22 20 18 20 20 20 20 20
3 3 2 3 7 5 5 6 2 6 15 17 11 11 11 15 16 17 21 21 24 22 22 23 23 24 25 26 27 26 26 25 26 26 27 27 26 25 23 25 25 24 23 21 20 22 22 22 22
4 3 2 3 4 4 4 6 8 23 18 18 20 22 22 23 19 24 24 26 27 26 25 28 25 26 27 28 28 28 28 28 27 26 26 28 29 28 28 27 28 27 24 23 23 24 25 26 26
2 3 2 2 6 5 7 5 7 12 12 16 17 17 18 20 19 25 31 31 27 28 32 30 30 29 28 29 29 31 31 31 30 28 28 29 30 31 29 29 29 28 27 26 26 26 28 29 29
3 3 7 6 7 2 6 2 5 13 14 20 20 19 17 18 21 20 18 22 28 32 30 33 33 33 30 30 30 31 33 33 33 32 32 31 31 32 32 31 31 29 29 29 29 29 30 30 31
6 3 3 5 2 2 6 8 9 23 22 21 24 23 25 28 28 25 23 19 17 23 27 29 30 34 34 33 36 37 36 35 35 36 36 35 33 33 34 34 33 31 32 32 32 33 32 32 32
3 4 6 3 4 3 7 8 10 23 22 23 28 32 34 34 33 32 29 26 24 21 21 19 23 28 33 35 38 40 39 37 37 36 36 37 36 35 36 37 36 35 36 35 33 34 35 35 34
3 2 3 5 4 3 7 11 11 17 17 28 29 29 31 34 36 36 36 35 34 31 27 26 25 26 27 30 34 38 38 38 37 38 38 36 37 38 39 39 40 39 38 39 38 38 38 39 37
5 7 3 5 7 4 6 10 8 9 11 25 29 34 36 38 39 37 28 22 28 35 36 32 26 23 24 27 36 39 41 40 38 37 36 34 37 39 40 41 41 42 42 43 42 42 41 42 40
12 6 4 3 4 4 3 7 5 5 8 7 26 31 31 28 30 34 30 25 20 19 23 28 32 30 27 25 32 37 41 42 37 38 38 37 36 36 39 41 43 44 45 45 46 46 46 43 45
8 6 8 4 4 4 1 3 6 3 6 10 21 30 22 17 23 24 16 12 13 11 10 13 18 23 26 30 31 32 35 39 40 43 44 41 39 38 37 37 39 43 45 47 47 49 51 49 48
2 3 3 2 1 7 7 5 4 4 6 5 9 15 11 9 8 5 2 5 7 6 4 4 7 10 14 19 24 29 32 35 39 41 44 44 43 41 40 39 39 39 40 41 42 46 51 51 51
8 5 1 2 4 6 1 5 12 7 10 7 12 15 4 10 7 17 16 14 10 8 6 4 3 4 7 11 18 21 25 28 33 36 38 40 43 45 44 41 41 41 40 40 38 40 45 49 52
12 8 5 7 4 4 2 8 6 8 18 20 24 23 18 11 12 13 13 11 8 6 3 0 3 5 7 10 11 13 16 23 28 31 34 37 39 40 42 42 39 38 37 36 36 36 38 41 46
6 14 7 3 1 2 5 7 8 10 12 17 10 9 7 16 13 12 10 8 5 3 4 5 7 10 12 14 15 17 19 20 21 25 28 32 35 38 41 42 40 38 37 36 34 35 35 37 40
7 7 5 4 4 5 5 5 7 8 8 8 8 6 11 16 14 13 9 5 4 6 8 11 13 14 16 17 19 20 20 22 24 26 27 28 32 35 37 40 41 40 37 35 34 34 34 36 38
7 8 5 4 5 5 2 6 7 9 9 9 10 13 17 16 15 11 6 3 5 9 12 14 16 17 18 20 21 21 22 23 24 27 29 30 30 31 33 35 38 40 39 37 34 33 35 37 37
18 15 13 6 7 6 1 8 3 4 0 9 10 9 22 17 13 8 3 2 6 10 13 15 16 17 19 20 22 22 22 23 24 26 27 28 30 31 31 32 34 36 37 37 36 35 34 36 38
Wind_Direction
347 349 353 23 57 68 95 196 267 36 48 19 87 125 131 115 147 218 145 157 159 165 166 171 170 165 147 141 139 146 142 147 138 135 122 128 127 130 129 129 122 116 116 117 111 104 94 90 97
347 350 3 73 83 74 283 256 160 184 115 115 79 73 53 93 128 149 152 159 167 175 170 174 175 172 166 158 154 159 153 158 150 138 163 144 140 140 139 134 130 128 124 123 117 107 98 92 91
346 349 16 82 106 148 167 194 197 140 124 134 83 68 52 106 170 164 166 165 167 184 180 178 179 177 176 171 171 169 161 161 156 146 161 163 157 154 145 141 142 140 133 131 123 115 107 97 87
347 352 48 74 71 233 177 175 187 133 113 97 129 69 65 188 164 162 175 176 172 186 189 185 183 183 184 182 178 171 168 165 166 159 156 178 161 158 151 151 149 145 141 141 135 128 120 110 93
358 3 46 77 347 326 45 171 163 138 147 136 160 175 153 158 175 188 180 180 184 189 192 191 190 188 193 192 186 181 179 177 182 168 170 181 172 167 169 162 159 158 154 152 149 144 134 128 104
15 24 42 98 297 311 304 182 177 148 147 139 123 143 171 187 210 200 191 183 185 196 196 197 195 197 199 203 200 194 189 187 183 187 179 186 182 182 178 180 169 169 164 162 162 160 156 150 131
92 74 192 294 294 234 210 177 179 153 141 168 157 131 203 187 186 197 187 187 190 205 205 201 202 202 207 209 211 209 205 197 193 194 201 198 184 183 194 195 186 182 180 176 175 175 176 178 175
125 96 110 294 295 292 320 146 151 160 171 144 192 183 230 190 183 184 190 197 206 209 207 209 209 210 214 216 217 220 219 210 205 206 210 214 199 199 203 209 199 188 191 190 188 189 190 196 208
142 72 187 222 198 274 329 126 131 132 145 168 172 167 197 182 181 188 198 206 214 213 215 215 219 220 221 223 226 227 228 223 216 214 215 219 216 212 218 221 211 200 199 200 202 202 203 206 211
139 154 212 207 178 250 357 73 167 151 146 173 164 163 168 182 190 200 207 212 217 219 217 219 223 226 227 229 229 232 234 232 228 226 224 223 226 225 228 232 234 227 212 209 211 212 214 218 221
171 199 207 173 139 18 338 142 283 176 203 196 210 171 171 187 200 211 221 226 234 234 230 228 228 232 230 233 234 236 238 240 240 237 235 233 231 232 233 234 235 236 230 220 217 217 221 225 230
163 213 183 172 87 5 319 291 268 208 186 147 164 215 193 203 214 222 224 232 234 233 238 237 235 236 232 236 238 242 243 244 244 245 242 241 240 239 239 241 242 243 242 236 227 227 228 230 234
219 198 201 209 244 252 274 254 255 246 227 233 245 248 228 231 239 240 243 243 242 242 242 242 241 241 238 238 240 243 246 246 250 251 250 250 249 250 249 248 246 247 245 241 239 235 235 238 240
275 252 224 236 228 235 208 247 210 255 249 255 255 257 255 256 252 253 246 248 244 250 251 250 247 246 245 245 246 245 247 249 251 251 253 253 254 256 258 253 251 251 251 250 248 247 245 247 247
286 328 331 212 213 240 200 271 215 251 260 262 261 267 271 266 258 254 263 260 259 261 264 254 255 251 248 249 251 251 251 250 251 254 255 255 256 256 259 260 255 255 255 257 256 253 251 250 250
135 49 357 249 209 240 162 248 241 253 237 254 261 264 266 270 269 262 261 260 260 259 257 261 256 252 252 253 254 254 254 254 256 257 256 256 258 258 258 259 259 258 257 257 259 258 254 255 254
351 226 224 306 216 264 185 232 256 286 267 264 268 271 263 274 266 263 267 265 262 260 260 261 260 257 258 258 257 258 259 258 259 260 258 257 258 258 257 259 261 259 259 260 262 262 258 258 257
211 222 256 229 305 184 270 272 276 274 273 269 272 257 266 271 269 266 265 266 271 259 261 264 258 260 261 259 255 255 257 260 261 260 260 259 258 260 259 258 259 260 259 258 260 262 260 260 262
156 184 231 298 265 262 243 262 267 277 282 276 272 266 267 269 271 272 266 261 266 263 264 265 260 259 260 258 257 255 258 262 262 265 265 264 262 259 260 258 259 260 260 261 262 262 262 261 261
214 230 263 290 277 217 279 268 263 261 260 270 273 270 265 267 270 274 275 265 261 262 263 267 264 262 261 260 261 262 263 264 267 268 268 269 268 265 261 260 260 261 262 262 261 259 259 260 259
225 233 226 239 320 284 303 273 237 259 242 254 259 262 264 268 274 278 280 277 267 263 261 261 263 265 265 266 262 260 261 263 266 270 275 278 271 269 266 264 263 263 263 263 263 262 260 260 261
247 185 195 247 328 262 9 292 248 242 263 252 264 266 264 271 279 279 279 277 284 267 251 249 252 262 264 266 265 263 263 265 277 280 281 281 280 278 275 270 267 265 266 265 265 267 265 261 258
232 173 212 231 249 304 202 292 277 316 277 264 261 265 275 279 281 273 276 271 275 272 259 255 251 255 259 261 263 265 265 268 273 273 275 278 281 281 280 279 273 269 266 268 268 268 269 266 262
208 227 160 94 102 257 209 178 257 227 221 263 269 288 252 316 330 244 175 135 139 143 162 211 235 243 249 253 257 261 264 267 269 271 273 276 277 279 280 281 280 278 274 272 273 271 269 269 267
198 155 285 273 217 236 355 206 250 273 258 235 273 289 335 347 108 117 115 111 117 131 137 147 181 237 257 264 263 269 272 274 275 275 275 276 278 280 280 282 282 281 281 281 280 276 273 271 270
199 179 170 202 209 242 141 234 249 245 278 275 270 277 285 272 158 123 115 115 101 96 103 192 271 281 283 287 284 282 280 274 274 274 276 278 278 279 281 282 282 282 282 282 282 279 276 275 274
191 209 179 95 25 51 228 292 291 264 279 277 276 286 249 167 152 134 126 118 101 67 11 343 325 312 302 295 288 283 283 285 283 277 274 275 276 278 282 283 283 282 281 280 280 279 279 277 275
188 151 178 187 212 235 255 266 235 297 280 262 273 225 183 154 141 141 137 122 65 18 356 341 328 319 311 305 300 296 289 283 283 285 288 287 284 280 280 281 281 283 282 281 280 277 277 276 277
188 203 203 183 174 205 268 256 216 233 274 274 260 223 185 161 152 151 138 78 9 352 342 336 328 319 312 306 300 294 291 287 285 283 283 285 286 285 281 277 273 274 276 279 278 276 278 276 276
222 220 201 202 212 240 265 256 275 197 355 83 51 158 161 156 156 162 166 356 342 339 336 331 327 321 312 307 305 302 297 292 290 288 286 285 286 286 286 282 275 271 273 275 276 276 278 279 279